Regional Weather Roundup
Issued by NWS

Home | Current Version | Previous Version | Text Only | Print | Product List | Glossary Off
Versions: 1 2 3 4 5 6 7 8 9 10 11 12 13 14 15 16 17 18 19 20 21 22 23 24 25 26 27 28 29 30 31 32 33 34 35 36 37 38 39 40 41 42 43 44 45 46 47 48 49 50

000
ASUS43 KOAX 260102
RWRNE

WEATHER ROUNDUP FOR NEBRASKA
NATIONAL WEATHER SERVICE OMAHA NE
800 PM CDT THU AUG 25 2016

NOTES: SATELLITE DATA IS BEING USED TO AUGMENT CLOUD COVER ABOVE
       12000 FEET.
       "FAIR" INDICATES FEW OR NO CLOUDS BELOW 12,000 FEET WITH NO
       SIGNIFICANT WEATHER AND/OR OBSTRUCTIONS TO VISIBILITY.

  * THESE STATIONS DO NOT REPORT WEATHER SUCH AS RAIN...SNOW OR FOG.

NEZ001>004-019>022-054>056-260200-
NEBRASKA PANHANDLE

CITY           SKY/WX    TMP DP  RH WIND       PRES   REMARKS
SCOTTSBLUFF    PTCLDY    68  49  50 NE9       30.17F
ALLIANCE       PTCLDY    65  46  50 NE9       30.19S
CHADRON        CLOUDY    66  48  52 NE8       30.19F
KIMBALL        CLOUDY    67  46  45 SE10      30.19F
SIDNEY         CLOUDY    69  43  38 SE9       30.20S
$$

NEZ057>060-069>072-079>082-260200-
SOUTHWEST NEBRASKA

CITY           SKY/WX    TMP DP  RH WIND       PRES   REMARKS
NORTH PLATTE   CLEAR     69  56  62 SE5       30.16R
IMPERIAL       CLEAR     73  45  36 SE8       30.17R
LEXINGTON      CLEAR     72  54  53 E6        30.16R
MCCOOK         CLEAR     72  52  49 E9        30.15R
OGALLALA       CLEAR     72  47  41 E5        30.17S
$$

NEZ005>010-023>029-035>040-094-260200-
NORTH CENTRAL NEBRASKA

CITY           SKY/WX    TMP DP  RH WIND       PRES   REMARKS
VALENTINE      CLEAR     68  44  42 N8        30.20S
AINSWORTH      CLEAR     64  53  67 N7        30.19S
BROKEN BOW     CLEAR     69  55  60 E3        30.17R
O`NEILL        CLEAR     69  51  52 N5        30.17R
ORD            CLEAR     71  53  52 NE5       30.15R
THEDFORD       PTCLDY    71  48  44 NE6       30.19S
$$

NEZ041-046>049-061>064-073>077-083>087-260200-
SOUTH CENTRAL NEBRASKA

CITY           SKY/WX    TMP DP  RH WIND       PRES   REMARKS
GRAND ISLAND   CLOUDY    69  57  65 NE6       30.15R
AURORA         CLOUDY    68  60  76 NE5       30.14R
HASTINGS       PTCLDY    70  58  65 NE6       30.15R
HEBRON         CLEAR     68  62  80 CALM      30.12R
HOLDREGE       CLEAR     69  58  68 NE3       30.16R
KEARNEY *      CLEAR     70  59  68 E5        30.15R
YORK           CLOUDY    68  59  73 E5        30.13S
$$

NEZ011>018-030>034-042>045-260200-
NORTHEAST NEBRASKA

CITY           SKY/WX    TMP DP  RH WIND       PRES   REMARKS
NORFOLK        CLEAR     70  54  56 NE6       30.14R
ALBION         CLEAR     69  58  68 CALM      30.15R
BLAIR          CLEAR     70  61  74 N6        30.12R
FREMONT        CLEAR     71  59  66 CALM      30.13S
TEKAMAH        CLEAR     69  58  67 N6        30.12R
WAYNE          CLEAR     68  62  79 CALM      30.14S
$$

NEZ050>053-065>068-078-088>093-260200-
SOUTHEAST NEBRASKA

CITY           SKY/WX    TMP DP  RH WIND       PRES   REMARKS
LINCOLN        CLEAR     70  62  76 NE8       30.12R
OMAHA EPPLEY   PTCLDY    71  62  73 N5        30.11R
BEATRICE       CLEAR     69  60  75 NE5       30.12R
FALLS CITY     CLEAR     71  63  75 NE5       30.09R
NEBRASKA CITY  CLOUDY    69  64  82 NE3       30.11S
PLATTSMOUTH    CLOUDY    70  62  74 CALM      30.12R
$$

NEZ044-045-051>053-067-260200-
OMAHA AREA

CITY           SKY/WX    TMP DP  RH WIND       PRES   REMARKS
OMAHA EPPLEY   PTCLDY    71  62  73 N5        30.11R
BLAIR          CLEAR     70  61  74 N6        30.12R
FREMONT        CLEAR     71  59  66 CALM      30.13S
MILLARD        PTCLDY    73  61  65 N3        30.11R
OFFUTT AFB     MOCLDY    72  62  71 N3        30.10R
PLATTSMOUTH    CLOUDY    70  62  74 CALM      30.12R
WAHOO          FAIR      67  62  83 N5        30.12S
$$




USA.gov is the U.S. government's official web portal to all federal, state and local government web resources and services.